586  
ASUS42 KFFC 231110  
RWRGA  
WEATHER ROUNDUP FOR GEORGIA  
NATIONAL WEATHER SERVICE PEACHTREE CITY GA  
700 AM EDT SUN APR 23 2017  
 
NOTE: "FAIR" INDICATES FEW OR NO CLOUDS BELOW 12,000 FEET WITH NO  
SIGNIFICANT WEATHER AND/OR S TO VISIBILITY
.  
 
* = USE WITH CAUTION. THE STATIONS MARKED WITH AN ASTERISK MAY NOT  
REPORT WEATHER SUCH AS PRECIPITATION, FOG, OR THUNDER AND ARE NOT  
QUALITY CONTROLLED BY NWS.  
 
THE REMARK "TC" DENOTES TEMPERATURE READING IN DEGREES CELSIUS.  
 
GAZ001>058-231200-  
NORTH GEORGIA  
 
CITY SKY/WX TMP DP RH WIND PRES REMARKS
 
ATLANTA CLOUDY 62 59 90 E9 29.83S  
ATHENS TSTM 60 60 100 E5 29.85S  
CHAMBLEE CLOUDY 62 57 83 SE6 29.84R  
PEACHTREE CITY MOCLDY 65 62 90 CALM 29.83R  
ROME CLOUDY 63 60 90 S7 29.79S  
WEST ATLANTA CLOUDY 64 59 83 VRB6 29.83R  
GAINESVILLE CLOUDY 58 58 100 CALM 29.88R  
CARTERSVILLE LGT RAIN 61 60 97 SE5 29.83R  
 
 
CITY SKY/WX TMP DP RH WIND PRES REMARKS
 
DALTON* LGT RAIN 61 61 100 SE8 29.80S  
LAWRENCEVILLE* CLOUDY 61 57 88 CALM 29.87  
MARIETTA DRIZZLE 61 59 94 E8 29.84R  
KENNESAW* CLOUDY 63 59 88 E7 29.83  
CANTON* DRIZZLE 59 57 94 E3 29.86R  

 
 
GAZ059>098-102>109-231200-  
CENTRAL GEORGIA  
 
CITY SKY/WX TMP DP RH WIND PRES REMARKS
 
AUGUSTA-BUSH MOCLDY 65 60 84 N3 29.84R  
AUGUSTA-DANIEL MOCLDY 66 56 70 NE7 29.85R  
COLUMBUS CLOUDY 68 61 78 S3 29.81R  
MACON CLOUDY 64 59 83 SE6 29.83R  
ROBINS AFB MOCLDY 63 61 91 S7 29.83R  
 
 
CITY SKY/WX TMP DP RH WIND PRES REMARKS
 
LAGRANGE* CLOUDY 64 64 100 CALM 29.81S  
SYLVANIA* CLEAR 66 64 94 CALM 29.86R  
MILLEDGEVILLE* CLOUDY 68 59 73 E7 29.84R  

 
 
GAZ099>101-110>166-231200-  
SOUTH GEORGIA  
 
CITY SKY/WX TMP DP RH WIND PRES REMARKS
 
SAVANNAH PTCLDY 68 65 90 S5 29.86R  
VALDOSTA PTCLDY 60 59 96 CALM 29.86S  
ALMA CLOUDY 64 63 96 CALM 29.86R  
ST SIMONS CLEAR 70 65 84 SW6 29.86R  
FT STEWART CLOUDY 64 63 94 CALM 29.84R FOG  
ALBANY CLEAR 62 61 96 S5 29.85S  
HUNTER AFB CLEAR 70 70 100 S7 29.83S  
MOODY AFB PTCLDY 61 59 94 CALM 29.85R FOG  
BRUNSWICK PTCLDY 68 66 94 SW3 29.88R  
 
 
CITY SKY/WX TMP DP RH WIND PRES REMARKS
 
BAINBRIDGE* PTCLDY 64 63 94 S7 29.82F  
MOULTRIE* CLEAR 63 61 94 CALM 29.85S  
VIDALIA* PTCLDY 64 63 94 CALM 29.85R  
WAYCROSS* CLOUDY 67 67 100 SW3 29.86R  
DOUGLAS* CLEAR 61 59 94 CALM 29.87S  

 
 
 
CLICK HERE TO GO TO PREVIOUS BULLETINS.

The Nexlab GA Page Main Text Page